Nome, AK

3:36 PM AKDT on July 24, 2016 (GMT -0800)
Golovin

Weather History for PAGL - April, 2014

Change the Weather History Date:

Tuesday, April 1, 2014

  Actual Average Record
Temperature  
Mean Temperature 24 °F -  
Max Temperature 32 °F - - ()
Min Temperature 15 °F - - ()
Degree Days  
Heating Degree Days 42    
Moisture  
Dew Point 10 °F    
Average Humidity 53    
Maximum Humidity 68    
Minimum Humidity 41    
Precipitation  
Precipitation 0.00 in - - ()
Sea Level Pressure  
Sea Level Pressure 30.11 in    
Wind  
Wind Speed 13 mph (NE)    
Max Wind Speed 23 mph    
Max Gust Speed 29 mph    
Visibility 10 miles    
Events      
T = Trace of Precipitation, MM = Missing Value Source: NWS Daily Summary

Daily Weather History Graph

Daily Weather History Graph

Search for Another Location

Airport or City:

Trip Planner

Search our weather history database for the weather conditions in past years. The results will help you decide how hot, cold, wet, or windy it might be!

Date:

Astronomy

Apr. 01, 2014 Rise Set
Actual Time 8:08 AM AKDT 9:45 PM AKDT
Civil Twilight 7:17 AM AKDT 10:36 PM AKDT
Nautical Twilight 6:11 AM AKDT 11:43 PM AKDT
Astronomical Twilight 4:43 AM AKDT 1:14 AM AKDT
Moon 8:34 AM AKDT (4/1) No Moon Set
Length of Visible Light 15h 18m
Length of Day
13h 36m
Waxing Crescent, 5% of the Moon is Illuminated
Apr 1
Waxing Crescent
Apr 7
First Quarter
Apr 14
Full
Apr 21
Last Quarter
Apr 28
New

Hourly Weather History & Observations

Time (AKDT) Temp. Windchill Dew Point Humidity Pressure Visibility Wind Dir Wind Speed Gust Speed Precip Events Conditions
12:16 AM 24.8 °F 11.9 °F 8.6 °F 50% 30.21 in 10.0 mi NNE 16.1 mph 21.9 mph N/A   Clear
12:36 AM 24.8 °F 20.5 °F 8.6 °F 50% 30.21 in 10.0 mi North 3.5 mph - N/A   Clear
12:56 AM 19.4 °F 11.5 °F 6.8 °F 58% 30.21 in 10.0 mi West 5.8 mph - N/A   Clear
1:16 AM 21.2 °F 10.9 °F 8.6 °F 58% 30.20 in 10.0 mi NNW 9.2 mph - N/A   Clear
1:36 AM 19.4 °F 9.5 °F 8.6 °F 63% 30.19 in 10.0 mi NNE 8.1 mph - N/A   Clear
1:56 AM 24.8 °F 14.6 °F 6.8 °F 46% 30.19 in 10.0 mi North 10.4 mph 19.6 mph N/A   Clear
2:16 AM 21.2 °F 14.9 °F 3.2 °F 46% 30.19 in 10.0 mi WNW 4.6 mph - N/A   Clear
2:36 AM 21.2 °F 9.5 °F 10.4 °F 63% 30.19 in 10.0 mi NNE 11.5 mph - N/A   Clear
2:56 AM 21.2 °F 12.6 °F 3.2 °F 46% 30.19 in 10.0 mi North 6.9 mph 17.3 mph N/A   Clear
3:16 AM 23.0 °F 10.1 °F 6.8 °F 50% 30.19 in 10.0 mi NNE 15.0 mph 19.6 mph N/A   Clear
3:36 AM 21.2 °F 7.8 °F 10.4 °F 63% 30.19 in 10.0 mi NE 15.0 mph - N/A   Clear
3:56 AM 21.2 °F 7.8 °F 8.6 °F 58% 30.18 in 10.0 mi NE 15.0 mph - N/A   Clear
4:16 AM 21.2 °F 6.8 °F 8.6 °F 58% 30.17 in 10.0 mi NE 17.3 mph 21.9 mph N/A   Clear
4:36 AM 21.2 °F 7.8 °F 6.8 °F 54% 30.17 in 10.0 mi ENE 15.0 mph - N/A   Clear
4:56 AM 19.4 °F 6.6 °F 6.8 °F 58% 30.17 in 10.0 mi ENE 12.7 mph - N/A   Clear
5:16 AM 21.2 °F 6.8 °F 10.4 °F 63% 30.17 in 10.0 mi ENE 17.3 mph 20.7 mph N/A   Clear
5:36 AM 21.2 °F 11.7 °F 6.8 °F 54% 30.16 in 10.0 mi NE 8.1 mph - N/A   Clear
5:56 AM 17.6 °F - 1.4 °F 49% 30.16 in 10.0 mi Calm Calm - N/A   Clear
6:16 AM 21.2 °F - 8.6 °F 58% 30.15 in 10.0 mi Calm Calm - N/A   Clear
6:36 AM 15.8 °F 10.2 °F 5.0 °F 62% 30.16 in 10.0 mi NW 3.5 mph - N/A   Clear
6:56 AM 21.2 °F 8.3 °F 12.2 °F 68% 30.15 in 10.0 mi NNE 13.8 mph 17.3 mph N/A   Clear
7:16 AM 21.2 °F 7.3 °F 8.6 °F 58% 30.15 in 10.0 mi NNE 16.1 mph - N/A   Clear
7:36 AM 23.0 °F 11.7 °F 8.6 °F 54% 30.14 in 10.0 mi NNE 11.5 mph 25.3 mph N/A   Clear
7:56 AM 23.0 °F 10.1 °F 8.6 °F 54% 30.14 in 10.0 mi NNE 15.0 mph 19.6 mph N/A   Clear
8:16 AM 24.8 °F 15.3 °F 10.4 °F 54% 30.14 in 10.0 mi North 9.2 mph - N/A   Clear
8:36 AM 24.8 °F 16.1 °F 10.4 °F 54% 30.14 in 10.0 mi North 8.1 mph - N/A   Clear
8:56 AM 23.0 °F 12.4 °F 8.6 °F 54% 30.14 in 10.0 mi NE 10.4 mph - N/A   Clear
9:16 AM 23.0 °F 12.4 °F 10.4 °F 59% 30.15 in 10.0 mi ENE 10.4 mph 16.1 mph N/A   Clear
9:36 AM 21.2 °F 12.6 °F 8.6 °F 58% 30.14 in 10.0 mi East 6.9 mph - N/A   Clear
9:56 AM 23.0 °F 11.1 °F 10.4 °F 59% 30.14 in 10.0 mi NE 12.7 mph - N/A   Clear
10:16 AM 23.0 °F 10.6 °F 10.4 °F 59% 30.14 in 10.0 mi NE 13.8 mph 19.6 mph N/A   Clear
10:36 AM 24.8 °F 10.7 °F 10.4 °F 54% 30.14 in 10.0 mi NE 19.6 mph - N/A   Clear
10:56 AM 23.0 °F 8.3 °F 10.4 °F 59% 30.13 in 10.0 mi NNE 19.6 mph 26.5 mph N/A   Clear
11:16 AM 24.8 °F 10.3 °F 10.4 °F 54% 30.13 in 10.0 mi NNE 20.7 mph 27.6 mph N/A   Clear
11:36 AM 24.8 °F 10.7 °F 10.4 °F 54% 30.13 in 10.0 mi NNE 19.6 mph 24.2 mph N/A   Clear
11:56 AM 26.6 °F 14.3 °F 12.2 °F 55% 30.13 in 10.0 mi NE 16.1 mph 26.5 mph N/A   Clear
12:16 PM 26.6 °F 13.4 °F 10.4 °F 51% 30.12 in 10.0 mi NE 18.4 mph 27.6 mph N/A   Clear
12:36 PM 26.6 °F 14.7 °F 12.2 °F 55% 30.12 in 10.0 mi NE 15.0 mph - N/A   Clear
12:56 PM 26.6 °F 15.7 °F 12.2 °F 55% 30.12 in 10.0 mi NE 12.7 mph - N/A   Clear
1:16 PM 28.4 °F 17.5 °F 12.2 °F 51% 30.11 in 10.0 mi NE 13.8 mph - N/A   Clear
1:36 PM 28.4 °F 15.8 °F 14.0 °F 55% 30.10 in 10.0 mi NE 18.4 mph 24.2 mph N/A   Clear
1:56 PM 28.4 °F 15.4 °F 14.0 °F 55% 30.10 in 10.0 mi ENE 19.6 mph 24.2 mph N/A   Clear
2:16 PM 30.2 °F 17.1 °F 14.0 °F 51% 30.09 in 10.0 mi ENE 21.9 mph - N/A   Clear
2:36 PM 30.2 °F 17.4 °F 15.8 °F 55% 30.09 in 10.0 mi ENE 20.7 mph 26.5 mph N/A   Clear
2:56 PM 30.2 °F 18.9 °F 14.0 °F 51% 30.09 in 10.0 mi NE 16.1 mph - N/A   Clear
3:16 PM 30.2 °F 19.3 °F 15.8 °F 55% 30.08 in 10.0 mi NE 15.0 mph - N/A   Clear
3:36 PM 30.2 °F 18.9 °F 14.0 °F 51% 30.08 in 10.0 mi NE 16.1 mph 25.3 mph N/A   Clear
3:56 PM 30.2 °F 18.9 °F 15.8 °F 55% 30.07 in 10.0 mi NE 16.1 mph 19.6 mph N/A   Clear
4:16 PM 30.2 °F 18.5 °F 12.2 °F 47% 30.07 in 10.0 mi NE 17.3 mph 24.2 mph N/A   Clear
4:36 PM 30.2 °F 19.3 °F 12.2 °F 47% 30.06 in 10.0 mi NE 15.0 mph 21.9 mph N/A   Clear
4:56 PM 30.2 °F 18.9 °F 14.0 °F 51% 30.06 in 10.0 mi NE 16.1 mph 25.3 mph N/A   Clear
5:16 PM 30.2 °F 19.3 °F 12.2 °F 47% 30.05 in 10.0 mi NE 15.0 mph - N/A   Clear
5:36 PM 30.2 °F 18.9 °F 12.2 °F 47% 30.04 in 10.0 mi NE 16.1 mph 20.7 mph N/A   Clear
5:56 PM 32.0 °F 23.6 °F 12.2 °F 44% 30.04 in 10.0 mi NNE 10.4 mph 16.1 mph N/A   Clear
6:16 PM 32.0 °F 23.0 °F 10.4 °F 41% 30.03 in 10.0 mi NE 11.5 mph 19.6 mph N/A   Clear
6:36 PM 30.2 °F 19.3 °F 12.2 °F 47% 30.03 in 10.0 mi NE 15.0 mph 19.6 mph N/A   Clear
6:56 PM 30.2 °F 19.8 °F 12.2 °F 47% 30.04 in 10.0 mi NE 13.8 mph 18.4 mph N/A   Clear
7:16 PM 30.2 °F 19.3 °F 12.2 °F 47% 30.03 in 10.0 mi NNE 15.0 mph - N/A   Clear
7:36 PM 28.4 °F 17.5 °F 12.2 °F 51% 30.03 in 10.0 mi NNE 13.8 mph 24.2 mph N/A   Clear
7:56 PM 28.4 °F 16.2 °F 12.2 °F 51% 30.02 in 10.0 mi NE 17.3 mph 23.0 mph N/A   Clear
8:16 PM 28.4 °F 17.0 °F 12.2 °F 51% 30.02 in 10.0 mi NNE 15.0 mph 25.3 mph N/A   Clear
8:36 PM 28.4 °F 15.4 °F 12.2 °F 51% 30.01 in 10.0 mi NE 19.6 mph 24.2 mph N/A   Clear
8:56 PM 28.4 °F 15.4 °F 12.2 °F 51% 30.01 in 10.0 mi NNE 19.6 mph 27.6 mph N/A   Clear
9:16 PM 26.6 °F 13.1 °F 12.2 °F 55% 30.01 in 10.0 mi NNE 19.6 mph 24.2 mph N/A   Clear
9:36 PM 26.6 °F 12.0 °F 10.4 °F 51% 30.00 in 10.0 mi NE 23.0 mph 28.8 mph N/A   Clear
9:56 PM 26.6 °F 13.8 °F 10.4 °F 51% 30.01 in 10.0 mi NE 17.3 mph 27.6 mph N/A   Clear
10:16 PM 26.6 °F 14.3 °F 10.4 °F 51% 30.00 in 10.0 mi NE 16.1 mph 26.5 mph N/A   Clear
10:36 PM 26.6 °F 13.8 °F 10.4 °F 51% 30.00 in 10.0 mi NE 17.3 mph 23.0 mph N/A   Clear
10:56 PM 24.8 °F 11.9 °F 10.4 °F 54% 30.00 in 10.0 mi NE 16.1 mph 20.7 mph N/A   Clear
11:16 PM 26.6 °F 15.2 °F 10.4 °F 51% 30.00 in 10.0 mi NNE 13.8 mph 21.9 mph N/A   Clear
11:36 PM 26.6 °F 19.1 °F 10.4 °F 51% 30.00 in 10.0 mi North 6.9 mph - N/A   Clear
11:56 PM 24.8 °F 15.3 °F 10.4 °F 54% 30.00 in 10.0 mi North 9.2 mph - N/A   Clear